"Time","Temp","Dewpoint","Humidity","Pressure","Direction","Speed","Gust","Precip","PrecipRate"
"00:04:58","72.7","71.2","95","29.84","190","0","0","0.00","0.00"
"00:09:59","72.6","71.1","95","29.84","190","0","0","0.00","0.00"
"00:14:59","72.6","71.3","95.5","29.85","190","0","0","0.00","0.00"
"00:19:58","72.6","71.4","96","29.85","190","0","0","0.00","0.00"
"00:24:57","72.6","71.4","96","29.85","190","0","0","0.00","0.00"
"00:29:57","72.6","71.4","96","29.85","190","0","0","0.00","0.00"
"00:34:56","72.6","71.4","96","29.85","190","0","0","0.00","0.00"
"00:39:57","72.6","71.4","96","29.85","190","0","0","0.00","0.00"
"00:44:58","72.5","71.3","96","29.85","190","0","0","0.00","0.00"
"00:49:57","72.5","71.3","96","29.85","190","0","0","0.00","0.00"
"00:54:59","72.6","71.4","96","29.85","190","0","0","0.00","0.00"
"00:59:58","72.5","71.3","96","29.86","190","0.7","3.6","0.00","0.00"
"01:04:58","72.4","71.2","96","29.86","175","1.7","3.6","0.01","0.01"
"01:09:57","72.4","71.2","96","29.86","172","1.9","3.6","0.01","0.01"
"01:14:56","72.5","71.3","96","29.86","182","1.8","4.8","0.01","0.01"
"01:19:56","72.5","71.3","96","29.86","178","2.5","4.8","0.01","0.01"
"01:24:59","72.5","71.3","96","29.86","168","1.3","4.8","0.01","0.01"
"01:29:59","72.5","71.3","96","29.86","137","1","3.6","0.01","0.01"
"01:34:58","72.5","71.3","96","29.84","137","1.2","3.6","0.01","0.01"
"01:39:58","72.6","71.4","96","29.84","137","0.5","1.2","0.01","0.01"
"01:44:58","72.6","71.4","96","29.84","137","0.9","3.6","0.01","0.01"
"01:49:58","72.5","71.3","96","29.84","137","0.8","2.4","0.01","0.01"
"01:54:57","72.5","71.3","96","29.84","137","0","1.2","0.01","0.01"
"01:59:57","72.5","71.3","96","29.84","137","0.9","2.4","0.01","0.01"
"02:04:56","72.5","71.3","96","29.83","137","1.1","2.4","0.01","0.01"
"02:09:59","72.5","71.3","96","29.83","137","0.2","2.4","0.01","0.00"
"02:14:59","72.5","71.3","96","29.83","137","0","0","0.01","0.00"
"02:19:59","72.5","71.3","96","29.82","137","0","0","0.01","0.00"
"02:24:58","72.4","71.2","96","29.82","137","0","0","0.01","0.00"
"02:29:58","72.4","71.2","96","29.82","137","0","0","0.01","0.00"
"02:34:57","72.4","71.2","96","29.82","137","0","0","0.01","0.00"
"02:39:57","72.4","71.5","96.9","29.82","152","0.4","3.6","0.01","0.00"
"02:44:56","72.4","71.5","97","29.82","153","0.5","1.2","0.01","0.00"
"02:49:56","72.4","71.5","97","29.81","153","0","1.2","0.01","0.00"
"02:54:56","72.4","71.5","97","29.81","153","0","0","0.01","0.00"
"02:59:56","72.3","71.4","97","29.81","153","0","0","0.01","0.00"
"03:04:57","72.3","71.2","96.5","29.80","153","0","0","0.01","0.00"
"03:09:59","72.3","71.1","96","29.80","153","0","0","0.01","0.00"
"03:14:59","72.2","71.3","96.8","29.80","153","0","0","0.01","0.00"
"03:19:59","72.2","71.3","97","29.80","153","0","0","0.01","0.00"
"03:24:58","72.2","71.3","97","29.80","153","0","0","0.01","0.00"
"03:29:58","72.2","71.3","97","29.80","153","0","0","0.01","0.00"
"03:34:57","72.2","71.3","97","29.79","153","0","0","0.01","0.00"
"03:39:57","72.2","71.3","97","29.79","153","0","0","0.01","0.00"
"03:44:57","72.2","71.3","97","29.79","153","0.6","3.6","0.01","0.00"
"03:49:57","72.1","71.2","97","29.79","153","0.9","2.4","0.01","0.00"
"03:54:57","72.1","71.2","97","29.79","153","0.8","2.4","0.01","0.00"
"03:59:56","72.1","71.2","97","29.79","153","0.7","2.4","0.01","0.00"
"04:04:58","72.2","71.3","97","29.79","154","1.3","4.8","0.01","0.00"
"04:09:57","72.2","71.3","97","29.79","165","1.2","4.6","0.01","0.00"
"04:14:57","72.2","71.3","97","29.79","165","1.1","3.6","0.01","0.00"
"04:19:57","72.1","71.2","97","29.78","165","1.2","3.6","0.01","0.00"
"04:24:57","72.1","71.2","97","29.78","165","0","0","0.01","0.00"
"04:29:59","72.1","71.2","97","29.78","164","0","3.6","0.01","0.00"
"04:34:56","72.1","71.2","97","29.78","164","0.8","3.5","0.01","0.00"
"04:39:59","72","71.1","97","29.78","165","1.6","3.6","0.01","0.00"
"04:44:56","72","71.1","97","29.78","166","0.5","2.4","0.01","0.00"
"04:49:56","72","71.1","97","29.78","166","0.1","1.2","0.01","0.00"
"04:54:56","72","71.1","97","29.78","166","0.1","2.4","0.01","0.00"
"04:59:57","72","71.1","97","29.78","166","1.3","2.4","0.01","0.00"
"05:04:57","72","71.1","97","29.78","166","0.7","2.4","0.01","0.00"
"05:09:59","72","71.1","97","29.78","166","1.4","3.6","0.01","0.00"
"05:14:56","72.1","71.2","97","29.79","166","1","3.6","0.01","0.00"
"05:19:57","72.1","71.2","97","29.79","166","1.7","6","0.01","0.00"
"05:24:57","72.1","71.2","97","29.79","166","1.5","5.8","0.01","0.00"
"05:29:58","72.1","71.2","97","29.79","166","1.1","3.6","0.01","0.00"
"05:34:58","72.1","71.2","97","29.79","166","1.1","3.6","0.01","0.00"
"05:39:59","72.1","71.2","97","29.79","166","1.5","3.6","0.01","0.00"
"05:44:59","72.1","71.2","97","29.79","166","1.6","3.6","0.01","0.00"
"05:49:56","72.1","71.2","97","29.79","167","1.5","3.5","0.01","0.00"
"05:54:56","72.1","71.2","97","29.79","167","0.7","2.4","0.01","0.00"
"05:59:57","72.1","71.2","97","29.79","147","0.3","2.4","0.01","0.00"
"06:04:57","72.2","71.3","97","29.79","147","1.3","3.6","0.01","0.00"
"06:09:56","72.2","71.3","97","29.79","147","0.9","3.6","0.01","0.00"
"06:14:57","72.3","71.4","97","29.80","147","0","1.2","0.01","0.00"
"06:19:58","72.3","71.4","97","29.80","147","0","0","0.01","0.00"
"06:24:58","72.3","71.4","97","29.80","148","0","0","0.01","0.00"
"06:29:59","72.4","71.5","97","29.80","147","0.2","2.4","0.01","0.00"
"06:34:59","72.5","71.6","97","29.80","147","0.2","1.2","0.01","0.00"
"06:39:56","72.5","71.6","97","29.80","147","0.5","2.4","0.01","0.00"
"06:44:59","72.5","71.6","97","29.81","148","0","1.2","0.01","0.00"
"06:49:56","72.5","71.6","97","29.81","148","0","0","0.01","0.00"
"06:54:56","72.6","71.7","97","29.81","148","0","1.2","0.01","0.00"
"06:59:56","72.7","71.8","97","29.81","148","0.1","1.2","0.01","0.00"
"07:04:57","72.7","71.8","97","29.81","148","0","0","0.01","0.00"
"07:09:59","72.8","71.9","97","29.81","148","0","0","0.01","0.00"
"07:14:56","72.9","72","97","29.81","148","0","0","0.01","0.00"
"07:19:56","72.9","72","97","29.81","148","0","0","0.01","0.00"
"07:24:56","73","72.1","97","29.81","148","0","0","0.01","0.00"
"07:29:57","73.1","72.2","97","29.81","148","0","0","0.01","0.00"
"07:34:57","73.1","72.2","97","29.81","148","0","0","0.01","0.00"
"07:39:58","73.3","72.4","97","29.81","148","0","0","0.01","0.00"
"07:44:57","73.3","72.4","97","29.81","148","0","0","0.01","0.00"
"07:49:58","73.3","72.2","96.2","29.81","148","0","0","0.01","0.00"
"07:54:58","73.4","72.5","96.7","29.81","148","0","0","0.01","0.00"
"07:59:59","73.6","72.4","96.1","29.81","148","0","0","0.01","0.00"
"08:04:59","73.6","72.4","96","29.81","148","0.1","1.2","0.01","0.00"
"08:09:57","73.7","72.5","96","29.81","148","1.2","2.4","0.01","0.00"
"08:14:58","73.7","72.5","96","29.81","148","0.2","1.2","0.01","0.00"
"08:19:59","73.9","72.7","96","29.81","148","0.2","1.2","0.01","0.00"
"08:24:58","74","72.8","96","29.81","148","0","0","0.01","0.00"
"08:29:58","74.2","73","96","29.82","148","0.1","1.2","0.01","0.00"
"08:34:57","74.2","72.8","95.3","29.82","148","0.5","2.4","0.01","0.00"
"08:39:57","74.3","72.8","95","29.82","148","0.6","2.4","0.01","0.00"
"08:44:59","74.4","72.9","95.2","29.82","148","0.3","2.4","0.01","0.00"
"08:49:59","74.4","73","95.2","29.82","148","0","1.2","0.01","0.00"
"08:54:59","74.5","73","95.2","29.82","148","0","0","0.01","0.00"
"08:59:59","74.5","73","95","29.83","148","0","0","0.01","0.00"
"09:04:58","74.5","73","95","29.83","148","0","0","0.01","0.00"
"09:09:57","74.6","73.1","95","29.83","148","0","1.2","0.01","0.00"
"09:14:58","74.8","73.3","95","29.83","148","0.3","1.2","0.01","0.00"
"09:19:58","74.9","73.4","95","29.83","148","0","0","0.01","0.00"
"09:24:56","75","73.5","95","29.83","148","0","0","0.01","0.00"
"09:29:57","75","73.5","94.9","29.83","148","0","0","0.01","0.00"
"09:34:56","75.1","73.3","94.2","29.83","148","0.9","2.4","0.01","0.00"
"09:39:57","75.1","73.3","94","29.83","148","0.1","2.4","0.01","0.00"
"09:44:56","75.1","73.3","94","29.83","147","0.9","2.4","0.01","0.00"
"09:49:56","75.3","73.5","94","29.82","147","0","1.2","0.01","0.00"
"09:54:59","75.4","73.3","93.3","29.82","148","0","0","0.01","0.00"
"09:59:59","75.6","73.6","93.7","29.82","148","0","0","0.01","0.00"
"10:04:59","75.7","73.4","92.7","29.82","144","0.6","2.4","0.01","0.00"
"10:09:57","75.9","73.6","92.7","29.82","145","0.8","3.6","0.01","0.00"
"10:14:57","76.1","73.7","92.2","29.82","140","1","4.8","0.01","0.00"
"10:19:56","76.3","73.5","91.2","29.82","4","1.4","4.8","0.01","0.00"
"10:24:59","76.4","73.7","91.5","29.82","0","0.6","2.4","0.01","0.00"
"10:29:59","76.6","73.9","91.4","29.82","355","0.7","3.6","0.01","0.00"
"10:34:58","76.8","74","90.9","29.82","10","0.6","2.4","0.01","0.00"
"10:39:58","77","73.8","90.2","29.82","11","0.3","2.4","0.01","0.00"
"10:44:57","77.1","73.8","89.8","29.83","4","0.8","3.6","0.01","0.00"
"10:49:57","77.1","73.7","89.5","29.83","360","1","3.6","0.01","0.00"
"10:54:56","77.1","73.7","89.6","29.83","352","1.2","4.8","0.01","0.00"
"10:59:59","77","73.6","89.3","29.83","338","1.7","4.6","0.01","0.00"
"11:04:59","77","73.8","89.9","29.83","338","0.2","1.2","0.01","0.00"
"11:09:57","77.1","74","90.2","29.83","338","0.2","1.2","0.01","0.00"
"11:14:57","77.3","74.1","90","29.83","350","1.5","6","0.01","0.00"
"11:19:56","77.5","74.3","90","29.83","3","1.6","4.8","0.01","0.00"
"11:24:59","77.6","74.6","90.6","29.83","330","1.1","3.6","0.01","0.00"
"11:29:58","78","75.3","91.5","29.83","327","1.1","3.6","0.01","0.00"
"11:34:59","78.2","75.1","90.5","29.83","327","1.5","4.8","0.01","0.00"
"11:39:59","78.4","75.4","90.5","29.83","327","0.1","1.2","0.01","0.00"
"11:44:58","78.7","75.4","89.6","29.83","328","0.7","3.6","0.01","0.00"
"11:49:59","78.9","75","87.9","29.83","327","1","2.4","0.01","0.00"
"11:54:59","79.2","75.3","88.1","29.83","327","1","4.8","0.01","0.00"
"11:59:59","79.5","75.3","87","29.83","327","0.5","2.4","0.01","0.00"
"12:04:59","79.6","75.4","87","29.83","327","0.1","1.2","0.01","0.00"
"12:09:59","79.8","75.4","86.5","29.83","327","0.1","1.2","0.01","0.00"
"12:14:59","79.9","75.4","86.3","29.83","327","0","1.2","0.01","0.00"
"12:19:59","80.1","75.5","85.9","29.82","327","0.1","1.2","0.01","0.00"
"12:24:59","80.5","75.8","85.6","29.82","327","0.8","3.6","0.01","0.00"
"12:29:59","81.2","76.5","85.6","29.82","327","0.7","3.6","0.01","0.00"
"12:34:59","81.9","76.5","83.8","29.81","320","0.7","2.4","0.01","0.00"
"12:39:56","82.4","76.6","82.6","29.81","315","1.3","6","0.01","0.00"
"12:44:55","82.6","75.7","79.9","29.81","323","1.7","6","0.01","0.00"
"12:49:56","82.8","75.9","79.7","29.81","336","2.2","10.8","0.01","0.00"
"12:54:56","83.2","75.6","78","29.81","342","3.8","12","0.01","0.00"
"12:59:56","83.1","74.8","76.1","29.81","333","4.5","12","0.01","0.00"
"13:04:56","83.9","75.7","76.5","29.81","323","3.6","12","0.01","0.00"
"13:09:56","85.7","76.5","74","29.81","340","3.9","12","0.01","0.00"
"13:14:57","86","75.5","71.2","29.81","345","3.5","12","0.01","0.00"
"13:19:59","85.9","75.2","70.5","29.81","327","3.3","7.2","0.01","0.00"
"13:24:59","86","75.4","70.8","29.81","318","2.6","6","0.01","0.00"
"13:29:59","86.3","75.8","71.1","29.81","308","2.5","7.2","0.01","0.00"
"13:34:59","86.7","75.8","70.1","29.80","311","2.2","8.4","0.01","0.00"
"13:39:56","86.5","74.7","68.1","29.80","354","3.5","14.4","0.01","0.00"
"13:44:56","86.3","75.1","69.3","29.80","346","3.9","15","0.01","0.00"
"13:49:56","86.2","75","69.3","29.80","203","2.4","6.9","0.01","0.00"
"13:54:56","85.7","74.6","69.8","29.80","327","3.7","10.8","0.01","0.00"
"13:59:56","85.3","74.6","70.4","29.80","325","3.5","9.6","0.01","0.00"
"14:04:56","85.5","75.5","72.2","29.79","342","2.9","8.4","0.01","0.00"
"14:09:56","86.1","75.4","70.7","29.79","337","3.8","7.2","0.01","0.00"
"14:14:57","86.5","75","68.9","29.79","313","2.7","4.8","0.01","0.00"
"14:19:57","86.1","74.7","68.9","29.79","345","3.5","10.8","0.01","0.00"
"14:24:57","85.8","73.9","67.9","29.79","333","3.7","10.8","0.01","0.00"
"14:29:57","85.7","75.1","70.8","29.79","345","2.7","8.4","0.01","0.00"
"14:34:57","87.3","75.1","67.4","29.79","355","5.9","17.3","0.01","0.00"
"14:39:58","87.2","73.5","63.9","29.79","341","4.4","13.2","0.01","0.00"
"14:44:57","88","74.1","63.6","29.79","322","3.7","12","0.01","0.00"
"14:49:58","88.4","74.6","63.7","29.78","322","2.9","8.1","0.01","0.00"
"14:54:59","88.7","74.3","62.6","29.78","299","4.6","13.2","0.01","0.00"
"14:59:56","88.8","73.9","61.5","29.78","339","4.5","12.7","0.01","0.00"
"15:04:57","88.8","73.2","60.1","29.78","327","4.1","8.4","0.01","0.00"
"15:09:56","89.1","73.8","60.9","29.78","314","3.1","8.4","0.01","0.00"
"15:14:58","89.5","74","60.3","29.78","315","4.2","16.1","0.01","0.00"
"15:19:59","89.9","74.5","60.8","29.78","347","2.6","12.7","0.01","0.00"
"15:24:56","89.5","73","58.5","29.78","335","5.9","13.2","0.01","0.00"
"15:29:58","88.6","73.5","61.2","29.78","340","2.9","8.4","0.01","0.00"
"15:34:58","88.6","74.5","63.3","29.78","292","2.2","4.8","0.01","0.00"
"15:39:56","89.4","74.5","61.5","29.78","310","4.1","12","0.01","0.00"
"15:44:57","89.5","73.9","60.4","29.78","344","3.2","10.8","0.01","0.00"
"15:49:58","89.1","74.1","61.5","29.77","327","1.9","7.2","0.01","0.00"
"15:54:56","89.6","74.9","62","29.77","347","2","10.8","0.01","0.00"
"15:59:57","90.1","74.8","61","29.77","347","3.4","9.6","0.01","0.00"
"16:04:58","90.4","74.5","59.8","29.76","346","4.1","12","0.01","0.00"
"16:09:57","90.1","73.8","59","29.76","339","4.6","15","0.01","0.00"
"16:14:57","89.8","73.5","58.8","29.77","335","3.8","13.2","0.01","0.00"
"16:19:58","89.5","72.9","58.1","29.77","320","2.6","10.8","0.01","0.00"
"16:24:59","89.2","72.9","58.9","29.77","342","4.3","12","0.01","0.00"
"16:29:56","88.8","73.2","60.1","29.77","344","4.1","12","0.01","0.00"
"16:34:57","89.2","72.8","58.5","29.77","343","4.9","12","0.01","0.00"
"16:39:59","89.5","73","58.4","29.77","297","3.1","8.4","0.01","0.00"
"16:44:56","90.1","73.5","58.4","29.78","303","3.4","10.8","0.01","0.00"
"16:49:58","90.3","73.4","57.8","29.78","331","4.4","10.8","0.01","0.00"
"16:54:59","90.4","74.2","59.2","29.78","335","3.5","10.8","0.01","0.00"
"16:59:56","90.6","73.7","57.8","29.78","331","3.6","10.4","0.01","0.00"
"17:04:56","90.3","73.7","58.3","29.78","338","2.2","7.2","0.01","0.00"
"17:09:56","90.1","73.9","59.3","29.78","343","3","12","0.01","0.00"
"17:14:57","90.3","73.8","58.7","29.78","349","2.8","11.5","0.01","0.00"
"17:19:58","90.6","73.7","57.7","29.78","332","3","9.6","0.01","0.00"
"17:24:58","90.9","73.9","57.7","29.78","274","2.8","9.6","0.01","0.00"
"17:29:58","91","73.6","56.9","29.78","345","5.6","14.4","0.01","0.00"
"17:34:58","90.6","73.1","56.6","29.78","352","3.1","15","0.01","0.00"
"17:39:59","90.5","73.3","57.1","29.78","283","2.2","6","0.01","0.00"
"17:44:59","90.5","73","56.5","29.78","316","2.9","8.4","0.01","0.00"
"17:49:56","90.5","73.1","57","29.78","317","2.6","6","0.01","0.00"
"17:54:56","90.3","73.4","57.8","29.78","276","2.2","6","0.01","0.00"
"17:59:56","90.2","73.2","57.7","29.78","252","2.5","7.2","0.01","0.00"
"18:04:56","89.9","72.6","57","29.78","298","3.1","10.8","0.01","0.00"
"18:09:56","89.6","72.5","57.3","29.78","331","3.4","10.4","0.01","0.00"
"18:14:56","89.4","72.8","58.2","29.78","292","3.4","8.4","0.01","0.00"
"18:19:57","89.3","72.6","58","29.78","312","2.5","14.4","0.01","0.00"
"18:24:57","89.1","72.2","57.5","29.78","322","2.6","15","0.01","0.00"
"18:29:58","89.1","72.8","58.8","29.78","336","2.2","6","0.01","0.00"
"18:34:58","89","72.2","57.8","29.78","302","2.5","7.2","0.01","0.00"
"18:39:59","88.8","72.4","58.6","29.78","340","2.5","6","0.01","0.00"
"18:44:59","88.8","72.5","58.9","29.79","310","2","4.8","0.01","0.00"
"18:49:56","88.6","72.3","58.8","29.79","330","1.9","7.2","0.01","0.00"
"18:54:56","88.4","71.9","58.5","29.79","339","2.5","6","0.01","0.00"
"18:59:57","88.1","72.1","59.3","29.80","346","1","4.8","0.01","0.00"
"19:04:58","87.9","72.1","59.6","29.80","340","1.5","4.8","0.01","0.00"
"19:09:57","87.7","72.3","60.4","29.80","339","2.1","6","0.01","0.00"
"19:14:59","87.4","72.3","61","29.80","339","1.2","5.8","0.01","0.00"
"19:19:56","87.2","72.5","61.7","29.80","339","0.4","3.6","0.01","0.00"
"19:24:57","86.9","72.1","61.7","29.80","338","1.8","4.8","0.01","0.00"
"19:29:57","86.6","72.4","62.7","29.81","359","3","10.8","0.01","0.00"
"19:34:58","86.2","72.1","63","29.81","355","1.6","4.8","0.01","0.00"
"19:39:59","85.7","71.8","63.3","29.81","324","3.4","8.4","0.01","0.00"
"19:44:56","85.2","71.7","64.3","29.82","327","2","6","0.01","0.00"
"19:49:57","84.8","71.7","64.9","29.82","333","2.4","7.2","0.01","0.00"
"19:54:58","84.4","72.1","66.6","29.82","325","1","6","0.01","0.00"
"19:59:58","84","72.6","68.6","29.82","325","0.4","2.4","0.01","0.00"
"20:04:59","83.7","72.6","69.5","29.82","325","0.1","2.4","0.01","0.00"
"20:09:58","83.3","71.9","68.7","29.82","324","1.5","3.6","0.01","0.00"
"20:14:59","83.1","72.1","69.5","29.82","324","0.8","3.5","0.01","0.00"
"20:19:56","82.9","71.5","68.6","29.82","324","0.8","2.4","0.01","0.00"
"20:24:57","82.7","71.2","68.3","29.82","324","0.3","2.4","0.01","0.00"
"20:29:59","82.5","71.2","68.8","29.83","324","0.1","1.2","0.01","0.00"
"20:34:56","82.3","71.3","69.4","29.83","324","0","1.2","0.01","0.00"
"20:39:58","82","71.7","71","29.83","324","0","0","0.01","0.00"
"20:44:59","81.5","72.3","73.8","29.83","324","0","0","0.01","0.00"
"20:49:57","80.7","72.1","75.1","29.83","67","0","0","0.01","0.00"
"20:54:59","80","71.8","76","29.83","80","0","0","0.01","0.00"
"20:59:56","79.5","71.7","76.9","29.83","80","0","0","0.01","0.00"
"21:04:57","79.1","71.6","77.7","29.83","80","0","0","0.01","0.00"
"21:09:56","78.7","71.5","78.8","29.83","80","0","0","0.01","0.00"
"21:14:57","78.3","71.2","79","29.84","80","0","0","0.01","0.00"
"21:19:58","77.8","70.8","79.1","29.84","80","0","0","0.01","0.00"
"21:24:58","77.4","70.7","80","29.84","80","0","0","0.01","0.00"
"21:29:59","77","70.6","80.6","29.84","80","0","0","0.01","0.00"
"21:34:59","76.6","70.6","81.7","29.84","80","0","0","0.01","0.00"
"21:39:57","76.3","70.8","82.9","29.84","80","0","0","0.01","0.00"
"21:44:57","76","70.5","83","29.85","80","0","0","0.01","0.00"
"21:49:58","75.7","70.5","83.8","29.85","80","0","0","0.01","0.00"
"21:54:59","75.6","70.4","84","29.85","80","0","0","0.01","0.00"
"21:59:59","75.4","70.4","84.3","29.86","80","0","0","0.01","0.00"
"22:04:59","75.2","70.3","84.8","29.86","80","0","0","0.01","0.00"
"22:09:58","75","70.2","85","29.86","80","0","0","0.01","0.00"
"22:14:59","74.9","70.1","85","29.87","80","0","0","0.01","0.00"
"22:19:59","74.8","70.1","85.2","29.87","80","0","0","0.01","0.00"
"22:24:59","74.6","70.1","86","29.87","80","0","0","0.01","0.00"
"22:29:56","74.6","70.1","86","29.87","80","0","0","0.01","0.00"
"22:34:56","74.5","70","86","29.87","80","0","0","0.01","0.00"
"22:39:57","74.3","69.9","86.2","29.87","80","0","0","0.01","0.00"
"22:44:58","74","69.9","87","29.87","80","0","0","0.01","0.00"
"22:49:59","73.9","69.8","87.2","29.87","80","0","0","0.01","0.00"
"22:54:59","73.9","69.8","87","29.87","80","0","0","0.01","0.00"
"22:59:59","73.9","69.8","87","29.87","80","0","0","0.01","0.00"
"23:04:59","73.8","69.7","87","29.87","80","0","0","0.01","0.00"
"23:09:58","73.8","69.7","87","29.87","80","0","0","0.01","0.00"
"23:14:58","73.7","69.7","87.4","29.87","80","0","0","0.01","0.00"
"23:19:59","73.5","69.7","88","29.87","80","0","0","0.01","0.00"
"23:24:56","73.3","69.5","88","29.87","80","0","0","0.01","0.00"
"23:29:56","73.1","69.6","88.7","29.87","80","0","0","0.01","0.00"
"23:34:56","72.9","69.5","89","29.87","80","0","0","0.01","0.00"
"23:39:57","72.8","69.6","89.8","29.87","80","0","0","0.01","0.00"
"23:44:57","72.7","69.6","90","29.87","80","0","0","0.01","0.00"
"23:49:57","72.5","69.4","90","29.87","80","0","0","0.01","0.00"
